Regional Weather Roundup
Issued by NWS Charleston, SC

Current Version | Previous Version | Text Only | Print | Product List | Glossary Off
Versions: 1 2 3 4 5 6 7 8 9 10 11 12 13 14 15 16 17 18 19 20 21 22 23 24 25 26 27 28 29 30 31 32 33 34 35 36 37 38 39 40 41 42 43 44 45 46 47 48 49 50

000
ASUS42 KCHS 231827
RWRCHS

REGIONAL WEATHER ROUNDUP
NATIONAL WEATHER SERVICE CHARLESTON SC
200 PM EDT MON OCT 23 2017

NOTE: "FAIR" INDICATES FEW OR NO CLOUDS BELOW 12,000 FEET WITH NO
SIGNIFICANT WEATHER AND/OR OBSTRUCTIONS TO VISIBILITY.

NOT ALL STATIONS ARE QUALITY CONTROLLED. USE DATA WITH CAUTION...
ESPECIALLY DEWPOINT OBSERVATIONS.

SCZ027-030-031-034>040-042>050-231900-
...SOUTHEAST SOUTH CAROLINA...

CITY           SKY/WX    TMP DP  RH WIND       PRES   REMARKS
N CHARLESTON   CLOUDY    77  73  87 S17       29.97F
6HR MIN TEMP:  73; 6HR MAX TEMP:  78; 6HR PCP: TRACE;

WATERFRONT PRK NOT AVBL
JOHNS ISLAND   MOCLDY    79  75  89 S9        29.95F
PINOPOLIS        N/A     75  73  94 VRB3      29.90F
MONCKS CORNER  CLOUDY    75  73  94 S8        29.95F
SUMMERVILLE    FAIR      77  72  83 S7        29.95F
BEAUFORT MCAS  LGT RAIN  75  73  93 MISG      29.93F FOG
6HR MIN TEMP:  75; 6HR MAX TEMP:  79;

BEAUFORT ARPT  LGT RAIN  73  72  94 S13G30    29.93F
HILTON HEAD IS DRIZZLE   77  73  88 S13       29.95F
WALTERBORO     CLOUDY    77  72  83 SE12G22   29.94F
ALLENDALE      LGT RAIN  77  72  83 S7          N/A

...SOUTHERN MIDLANDS AND PEE DEE...

CITY           SKY/WX    TMP DP  RH WIND       PRES   REMARKS
GEORGETOWN     CLOUDY    77  73  88 SE16      30.00F
KINGSTREE      RAIN      73  70  88 SE9       29.97F
ORANGEBURG     PTSUNNY   77  72  84 S14       29.93F
6HR MIN TEMP:  71; 6HR MAX TEMP:  78; 6HR PCP:  0.01;

BARNWELL       LGT RAIN  75  73  94 E23       29.81F
AIKEN          CLOUDY    73  70  88 SE13G21   29.90S
MANNING        MOCLDY    73  73 100 MISG      29.95F
COLUMBIA       CLOUDY    78  73  84 SE16G24   29.89F
6HR MIN TEMP:  72; 6HR MAX TEMP:  79; 6HR PCP: TRACE;

SUMTER         CLOUDY    75  70  83 SE13      29.91F
6HR MIN TEMP:  71; 6HR MAX TEMP:  77; 6HR PCP:  0.01;

FLORENCE       CLOUDY    74  69  85 SE10      29.98F
6HR MIN TEMP:  70; 6HR MAX TEMP:  78; 6HR PCP: TRACE;

MYRTLE BEACH   CLOUDY    78  68  71 SE13      30.02F
N MYRTLE BEACH CLOUDY    77  69  76 S8        30.02F
6HR MIN TEMP:  72; 6HR MAX TEMP:  79; 6HR PCP:  0.06;


$$

GAZ063-065-086>088-099>101-113>116-118-119-134>141-150-231900-
...SOUTHEAST GEORGIA...

CITY           SKY/WX    TMP DP  RH WIND       PRES   REMARKS
SAVANNAH ARPT  LGT RAIN  79  74  84 S20G30    29.93F
6HR MIN TEMP:  75; 6HR MAX TEMP:  82; 6HR PCP: TRACE;

HUNTER AAF     PTSUNNY   79  73  81 S13G20    29.91F
6HR MIN TEMP:  77; 6HR MAX TEMP:  80; 6HR PCP: TRACE;

FORT STEWART   PTSUNNY   77  73  88 SE7       29.89F FOG
6HR MIN TEMP:  73; 6HR MAX TEMP:  79; 6HR PCP:  0.03;

STATESBORO     LGT RAIN  76  71  85 SW20G39   29.90S
SYLVANIA       RAIN      75  75 100 NW3       29.88F
CLAXTON        LGT RAIN  78  73  85 SE6G17    29.89F

...CSRA...CENTRAL AND FAR SOUTHEAST GEORGIA...

CITY           SKY/WX    TMP DP  RH WIND       PRES   REMARKS
THOMSON        LGT RAIN  75  70  83 SW20G36   29.85F VSB 3/4
AUGUSTA-BUSH   CLOUDY    79  74  84 S13       29.85F
6HR MIN TEMP:  73; 6HR MAX TEMP:  80; 6HR PCP:  0.01;

AUGUSTA-DANIEL CLOUDY    77  72  84 S14       29.86F
SWAINSBORO     RAIN      73  73 100 S12G20    29.89F
VIDALIA        CLOUDY    75  70  83 S10       29.88F
EASTMAN        CLOUDY    74  65  73 S10       29.89F
HAZLEHURST     LGT RAIN  76  73  89 S8G16     29.86F
ALMA           CLOUDY    79  73  82 S13G21    29.88F
6HR MIN TEMP:  73; 6HR MAX TEMP:  79; 6HR PCP:  0.22;

WAYCROSS       CLOUDY    81  72  73 SW20G25   29.89F
JESUP          NOT AVBL
BAXLEY         CLOUDY    77  77 100 S9        29.88F
BRUNSWICK      MOSUNNY   81  72  74 S18       29.92F
SAINT SIMONS   CLOUDY    81  76  84 S12       29.93F
6HR MIN TEMP:  77; 6HR MAX TEMP:  79; 6HR PCP: TRACE;


$$

SCZ027-028-034-036>038-045-046-048>050-GAZ119-141-231900-
...LAKE AND SUPPLEMENTAL COASTAL OBSERVATIONS...

STATION/POSITION TIME  TEMP    WIND        PRES    WAVE   SWELL
                       AIR SEA DIR/SP/G            HT/PER HT/PER/DIR
                 (UTC) (F)     (DEG/KT/KT) (MB)    (FT/S) (FT/S/D)
WINYAH BAY       1730   76     140/ 11     1016.0F
LAKE MURRAY      1730   76     150/ 19/ 23 1012.2F
ACE BASIN NERRS  1745   78     140/  6     1015.0F
FORT PULASKI     1800   78 74  170/ 10/ 16 1014.2
SAPELO ISLAND    NOT AVBL

$$

ANZ835-935-AMZ111-154-330-350-352-354-370-450-454-472-231900-
...C-MAN AND BUOY OBSERVATIONS...

STATION/POSITION TIME  TEMP    WIND        PRES    WAVE   SWELL
                       AIR SEA DIR/SP/G            HT/PER HT/PER/DIR
                 (UTC) (F)     (DEG/KT/KT) (MB)    (FT/S) (FT/S/D)
BUOY 41004       1810   80 80  160/ 21/ 27 1015.0
BUOY 41008       1750   79 77  160/ 19/ 23 1013.7F   5/ 6   2/120/12
FOLLY BEACH CMAN 1800   74     160/ 12/ 15 1015.3F
CAPERS NEARSHORE 1808   73 73  160/ 17/ 23 1014.3F
FRIPP NEARSHORE  1808   73     190/ 21/ 35   N/A


STATION/POSITION TIME  TEMP    WIND        PRES    WAVE   SWELL
                       AIR SEA DIR/SP/G            HT/PER HT/PER/DIR
                 (UTC) (F)     (DEG/KT/KT) (MB)    (FT/S) (FT/S/D)
5E ST. MARYS GA  1800      77                N/A     5/ 6
FRYING PAN BUOY  1810   79 78  170/ 17/ 21 1016.9
BUOY 41025       1750   78 81  160/ 21/ 25 1019.1F   5/ 5   2/ 90/ 9
CAPE LOOKOUT NC  1800   76     160/ 12/ 13 1018.5F
BUOY 41002       1750   78 80  130/ 16/ 19 1019.7F   5/ 5   2/ 90/ 9
BUOY 41010       NOT AVBL
ST AUGUSTINE FL  1800   79 78  160/ 17/ 19 1014.7F


$$




USA.gov is the U.S. government's official web portal to all federal, state and local government web resources and services.